CAPE
0 0 0 0 0 0 0 2 0 0 0 0 1 2 4 3 2 3 0 0 1 2 0 0 0 0 0 0 0 0 0 0 0 0 8 0 0 0 0 0 0 1 3 0 0 0 0 0 0 0 2 0 11 16
0 0 0 0 0 0 0 2 0 0 0 0 1 2 4 4 2 8 1 0 1 5 0 0 0 0 0 0 0 0 0 0 0 0 0 0 0 0 0 0 0 0 1 0 1 0 0 0 1 1 1 8 12 11
0 0 0 0 0 0 1 1 0 0 0 0 2 2 5 3 5 7 4 2 0 0 0 0 0 0 0 0 0 0 0 0 0 0 1 0 1 0 0 0 0 0 5 2 2 0 0 0 2 0 4 9 7 1
0 0 0 0 0 0 1 0 0 0 0 0 1 2 4 6 4 9 1 1 0 0 0 0 0 0 0 0 0 0 0 0 0 0 2 0 1 1 0 0 0 0 0 0 0 0 6 0 0 0 4 2 1 0
0 0 0 0 0 0 1 0 0 0 0 0 1 2 3 4 5 2 0 0 0 0 0 0 0 0 0 0 0 0 0 0 1 5 3 2 4 1 1 0 0 0 4 0 14 7 13 0 0 3 2 0 4 1
0 0 0 0 0 0 1 0 0 0 0 0 1 2 2 4 3 0 0 0 0 0 1 0 0 0 0 0 0 0 0 0 0 2 3 2 2 0 0 1 0 0 1 7 23 2 0 0 0 0 0 1 1 1
0 0 0 0 0 1 1 0 0 0 0 0 1 0 0 2 1 0 0 0 0 1 1 1 0 0 0 0 0 0 0 0 0 5 1 1 1 2 0 1 0 0 0 25 5 0 0 16 0 4 2 2 2 3
0 0 0 0 0 2 0 0 0 0 0 0 0 0 0 2 0 0 0 0 0 0 1 0 0 0 0 0 0 0 0 2 2 3 2 2 3 3 1 1 0 8 0 0 0 0 0 0 1 5 5 1 0 1
0 0 0 0 0 1 0 0 0 0 0 0 0 0 0 0 0 1 0 0 0 0 0 0 0 0 0 0 0 0 6 1 1 1 1 2 0 0 0 23 15 0 0 0 0 0 0 4 16 3 2 0 2 3
0 0 0 0 2 0 0 0 0 0 0 0 0 0 0 0 1 0 0 2 0 1 0 0 0 0 0 0 0 2 5 8 0 0 0 1 0 2 1 3 2 0 0 0 0 0 0 0 0 4 3 4 2 2
2 1 0 1 6 1 0 0 0 0 0 0 0 0 0 0 0 0 0 2 1 0 0 0 0 0 0 0 0 7 15 1 8 1 1 0 0 1 2 4 1 0 0 0 0 0 2 4 8 3 1 2 2 3
0 0 0 3 5 1 0 0 0 0 0 0 0 0 0 0 0 0 0 3 0 0 0 0 0 0 0 11 16 3 4 1 0 0 3 0 0 1 2 3 0 0 0 0 0 0 0 6 2 2 3 6 2 1
0 0 0 15 2 2 0 0 0 0 0 0 0 0 0 0 0 0 0 0 0 0 0 0 0 0 0 2 8 0 1 1 0 0 0 0 3 2 1 3 0 0 0 0 0 0 0 0 0 0 0 2 2 3
0 0 9 1 4 1 0 0 0 0 0 0 0 0 0 0 0 0 0 0 0 0 0 0 0 0 0 0 1 2 0 0 0 0 0 0 1 0 1 1 0 0 0 0 0 0 0 0 0 0 0 2 2 3
2 4 2 3 3 0 0 0 0 0 0 0 0 0 0 0 0 0 0 0 0 0 0 0 0 0 0 1 3 0 0 0 0 0 0 1 2 0 2 2 3 1 0 0 0 0 0 0 0 0 0 0 0 2
14 4 2 1 3 0 0 0 0 0 0 0 0 0 0 0 0 0 0 0 0 0 0 0 0 0 0 0 0 0 0 0 0 3 1 2 3 1 2 4 2 1 0 0 0 0 0 0 0 0 0 0 0 1
0 0 0 0 0 0 0 0 0 0 0 0 0 0 0 0 0 0 0 0 0 0 0 0 0 0 0 0 0 0 0 0 4 0 2 1 2 1 3 2 3 4 5 1 0 0 0 0 0 0 0 0 0 0
0 0 0 0 0 0 0 0 0 0 0 0 0 0 0 0 0 0 0 0 0 0 0 0 0 0 0 0 0 0 0 5 1 1 1 1 1 1 3 3 3 2 10 18 14 0 0 0 0 0 0 0 0 0
0 0 0 0 0 0 0 0 0 0 0 0 0 0 0 0 0 0 0 0 0 0 0 0 0 0 0 0 0 0 1 1 1 0 1 1 0 1 2 2 3 2 3 2 10 2 0 0 0 0 0 0 0 0
0 1 0 0 0 0 0 0 0 0 0 0 0 0 0 0 0 0 0 0 0 0 0 0 0 0 0 0 0 0 0 0 0 1 1 2 2 1 0 3 3 3 2 1 0 0 0 0 0 0 0 0 0 0
0 0 0 0 0 0 0 0 0 0 0 0 0 0 0 0 0 0 0 0 0 0 0 0 0 0 1 0 0 0 0 0 1 2 0 1 1 2 2 2 2 3 1 2 2 1 1 2 0 0 0 0 0 0
0 0 0 0 0 0 0 0 0 0 0 0 0 0 0 0 0 0 0 0 0 0 0 0 0 1 1 0 0 0 0 0 0 1 0 0 1 1 1 2 2 3 4 5 6 4 3 6 3 0 0 0 0 0
0 0 0 0 0 0 0 0 0 0 0 0 0 0 0 0 0 0 0 0 0 0 0 0 1 1 1 0 0 0 0 0 0 2 2 1 0 0 1 1 1 2 3 3 3 5 6 4 3 0 0 0 0 0
0 2 0 0 0 0 0 0 0 0 0 0 0 0 0 0 0 0 0 0 0 0 0 0 0 0 1 2 0 0 0 0 0 0 0 1 0 0 0 0 1 1 1 1 1 2 4 4 3 2 0 0 0 0
0 0 0 0 0 0 0 0 0 0 0 0 0 0 0 0 0 0 0 0 0 0 0 0 0 0 1 0 0 0 0 0 0 0 0 0 0 0 0 0 1 1 0 2 3 3 3 3 4 4 2 0 0 0
0 0 0 0 0 0 0 0 0 0 0 0 0 0 0 0 0 0 0 0 0 0 0 0 0 0 0 0 0 0 0 0 0 0 0 0 0 0 0 1 2 1 1 1 1 3 3 3 4 4 3 2 1 0
0 0 0 0 0 0 0 0 0 0 0 0 0 0 0 0 0 0 0 0 0 0 0 0 0 0 0 0 0 0 0 0 0 0 0 0 0 0 0 0 1 1 1 1 1 2 3 4 4 2 2 1 1 2
0 0 0 0 0 0 0 0 0 0 0 0 0 0 0 0 0 0 0 0 0 0 0 0 0 0 0 0 0 0 0 0 0 0 0 0 0 0 0 0 0 0 0 0 1 2 2 4 4 4 4 1 1 2
0 0 0 0 0 1 2 3 0 0 0 0 1 0 0 0 0 0 0 0 0 0 0 0 0 0 0 0 0 0 0 0 0 0 0 0 0 0 0 0 0 1 0 1 1 1 1 2 3 3 5 4 4 4
0 0 0 0 0 1 6 2 0 0 0 0 0 0 0 0 0 0 0 0 0 0 0 0 0 0 0 0 0 0 0 0 0 0 0 0 0 0 0 0 0 1 2 2 3 1 0 0 0 0 2 1 3 1
0 0 0 10 9 8 3 0 0 0 0 0 0 0 0 0 0 0 0 0 0 0 0 0 0 0 0 0 0 0 0 0 0 0 0 0 0 0 0 0 0 0 0 2 3 1 0 0 1 3 3 3 5 4
0 0 0 19 28 0 0 0 0 0 0 0 0 0 0 0 0 0 0 0 0 0 0 0 0 0 0 0 0 0 0 0 0 0 0 0 0 0 0 0 0 0 0 0 0 0 0 0 0 0 0 4 3 3
0 0 0 35 34 19 0 0 1 1 0 0 0 0 0 0 0 0 0 0 0 0 0 0 0 0 0 0 0 0 0 0 0 0 0 0 0 0 0 0 0 0 0 0 0 0 0 0 0 0 0 1 1 3
CIN
-0 -0 -0 -0 -0 -0 -0 -0 -1 -0 -0 -0 -0 -0 -0 -0 -1 -0 -0 -0 -0 -1 -0 -0 -0 -0 -0 -0 -0 -0 -0 -0 -0 -0 -6 -2 -0 -0 -0 -0 -0 -2 -5 -2 -0 -0 -0 -0 -0 -0 -0 -0 -1 -0
-0 -0 -0 -0 -0 -0 -0 -0 -0 -0 -0 -0 -0 -0 -0 -0 -0 -1 -0 -0 -10 -0 -0 -0 -0 -0 -0 -0 -0 -0 -0 -0 -0 -0 -0 -0 -0 -0 -0 -0 -2 -0 -3 -0 -0 -0 -0 -0 -0 -0 -1 -0 -0 -0
-0 -0 -0 -0 -0 -0 -1 -1 -0 -0 -0 -0 -0 -0 -0 -0 -1 -0 -2 -3 -0 -0 -0 -0 -0 -0 -0 -0 -0 -0 -0 -0 -0 -0 -0 -0 -0 -0 -0 -0 -0 -1 -7 -0 -0 -0 -0 -11 -1 -0 -0 -0 -0 -0
-0 -0 -0 -0 -0 -0 -0 -0 -0 -0 -0 -0 -0 -0 -0 -0 -0 -0 -1 -1 -0 -0 -0 -0 -0 -0 -0 -0 -0 -0 -0 -0 -0 -1 -1 -0 -0 -0 -0 -0 -0 -0 -0 -0 -0 -0 -0 -0 -0 -0 -0 -1 -1 -0
-0 -0 -0 -0 -0 -0 -0 -0 -0 -0 -0 -0 -0 -0 -0 -0 -0 -1 -0 -0 -0 -0 -0 -0 -0 -0 -0 -0 -0 -0 -0 -0 -8 -0 -1 -0 -0 -0 -0 -0 -0 -3 -0 -0 -0 -6 -0 -0 -0 -0 -2 -0 -0 -0
-0 -0 -0 -0 -0 -0 -0 -0 -0 -0 -0 -0 -0 -0 -0 -0 -0 -0 -0 -0 -0 -0 -0 -0 -0 -0 -0 -0 -0 -0 -0 -0 -0 -0 -0 -0 -0 -0 -0 -0 -0 -0 -4 -7 -0 -5 -0 -0 -2 -0 -0 -0 -0 -0
-0 -0 -0 -0 -0 -0 -0 -0 -0 -0 -0 -0 -0 -0 -0 -0 -0 -0 -0 -0 -0 -0 -0 -0 -0 -0 -0 -0 -0 -0 -0 -0 -0 -0 -0 -0 -0 -0 -0 -0 -0 -0 -0 -31 -13 -0 -0 -1 -0 -0 -0 -0 -0 -0
-0 -0 -0 -0 -0 -0 -0 -0 -0 -0 -0 -0 -0 -0 -0 -0 -0 -0 -0 -0 -0 -0 -0 -0 -0 -0 -0 -0 -0 -0 -2 -8 -0 -1 -0 -0 -0 -0 -0 -0 -0 -15 -6 -0 -0 -0 -0 -0 -3 -0 -0 -0 -0 -0
-0 -0 -0 -0 -3 -0 -0 -0 -0 -0 -0 -0 -0 -0 -0 -0 -0 -4 -0 -0 -0 -0 -0 -0 -0 -0 -0 -0 -0 -0 -12 -2 -0 -1 -0 -0 -0 -0 -0 -6 -17 -0 -0 -0 -0 -48 -15 -10 -5 -0 -0 -0 -0 -0
-0 -0 -0 -0 -7 -0 -0 -0 -0 -0 -0 -0 -0 -0 -0 -0 -2 -0 -0 -0 -0 -0 -0 -0 -0 -0 -0 -0 -0 -3 -17 -1 -0 -0 -0 -0 -0 -0 -0 -0 -26 -0 -0 -0 -0 -0 -0 -0 -0 -0 -0 -0 -0 -0
-8 -4 -0 -0 -1 -0 -0 -0 -0 -0 -0 -0 -0 -0 -0 -0 -0 -0 -0 -0 -0 -0 -0 -0 -0 -0 -0 -0 -0 -4 -3 -3 -0 -11 -1 -0 -0 -0 -0 -0 -0 -0 -0 -0 -0 -0 -1 -17 -1 -0 -0 -0 -0 -0
-2 -0 -3 -0 -3 -0 -0 -0 -0 -0 -0 -0 -0 -0 -0 -0 -0 -0 -0 -5 -0 -0 -0 -0 -0 -0 -0 -54 -1 -2 -2 -2 -0 -0 -0 -0 -0 -0 -0 -0 -0 -0 -0 -0 -0 -0 -0 -2 -3 -1 -0 -0 -0 -0
-0 -0 -0 -0 -0 -0 -0 -0 -0 -0 -0 -0 -0 -0 -0 -0 -0 -2 -0 -0 -0 -0 -0 -0 -0 -0 -0 -37 -31 -2 -1 -0 -0 -0 -0 -0 -0 -0 -0 -0 -0 -0 -0 -0 -0 -0 -0 -0 -0 -0 -0 -0 -0 -0
-0 -0 -0 -0 -0 -0 -0 -0 -0 -0 -0 -0 -0 -0 -0 -0 -0 -0 -0 -0 -0 -0 -0 -0 -0 -0 -0 -0 -5 -0 -0 -0 -0 -0 -0 -0 -0 -0 -0 -0 -0 -3 -0 -0 -0 -0 -0 -0 -0 -0 -0 -0 -0 -0
-2 -1 -0 -0 -0 -0 -0 -0 -0 -0 -0 -0 -0 -0 -0 -0 -0 -0 -0 -0 -0 -0 -0 -0 -0 -0 -0 -6 -13 -0 -0 -0 -0 -0 -0 -0 -0 -0 -0 -0 -0 -23 -0 -0 -0 -0 -0 -0 -0 -0 -0 -0 -0 -0
-0 -2 -0 -0 -0 -0 -0 -0 -0 -0 -0 -0 -0 -0 -0 -0 -0 -0 -0 -0 -0 -0 -0 -0 -0 -0 -0 -0 -0 -0 -0 -0 -0 -0 -0 -0 -0 -0 -0 -0 -0 -32 -0 -0 -0 -0 -0 -0 -0 -0 -0 -0 -0 -0
-0 -0 -0 -0 -0 -0 -0 -0 -0 -0 -0 -0 -0 -0 -0 -0 -0 -0 -0 -0 -0 -0 -0 -0 -0 -0 -0 -0 -0 -0 -0 -0 -0 -0 -0 -0 -0 -0 -0 -0 -0 -12 -44 -41 -0 -0 -0 -0 -0 -0 -0 -0 -0 -0
-0 -0 -0 -0 -0 -0 -0 -0 -0 -0 -0 -0 -0 -0 -0 -0 -0 -0 -0 -0 -0 -0 -0 -0 -0 -0 -0 -0 -2 -0 -0 -0 -0 -0 -0 -0 -0 -0 -0 -0 -0 -0 -12 -37 -44 -0 -0 -0 -0 -0 -0 -0 -0 -0
-0 -0 -0 -0 -0 -0 -0 -0 -0 -0 -0 -0 -0 -0 -0 -0 -0 -0 -0 -0 -0 -0 -0 -0 -0 -0 -0 -0 -0 -0 -0 -0 -0 -0 -0 -0 -0 -0 -0 -0 -0 -0 -0 -4 -55 -52 -0 -0 -0 -0 -0 -0 -0 -0
-0 -2 -0 -0 -0 -0 -0 -0 -0 -0 -0 -0 -0 -0 -0 -0 -0 -0 -0 -0 -0 -0 -0 -0 -0 -0 -0 -0 -0 -0 -0 -1 -0 -0 -0 -0 -0 -0 -0 -0 -0 -0 -0 -0 -0 -0 -0 -0 -0 -0 -0 -0 -0 -0
-0 -0 -0 -0 -0 -0 -0 -0 -0 -0 -0 -0 -0 -0 -0 -0 -0 -0 -0 -0 -0 -0 -0 -0 -0 -0 -0 -0 -0 -0 -0 -0 -0 -0 -0 -0 -0 -0 -0 -0 -0 -0 -0 -0 -0 -0 -0 -0 -0 -0 -0 -0 -0 -0
-0 -0 -0 -0 -0 -0 -0 -0 -0 -0 -0 -0 -0 -0 -0 -0 -0 -0 -0 -0 -0 -0 -0 -0 -2 -7 -1 -0 -0 -0 -4 -0 -0 -0 -0 -0 -0 -0 -0 -0 -0 -0 -0 -0 -0 -0 -0 -0 -0 -0 -0 -0 -0 -0
-0 -0 -0 -0 -0 -0 -0 -0 -0 -0 -0 -0 -0 -0 -0 -0 -0 -0 -0 -0 -0 -0 -0 -0 -5 -4 -7 -2 -1 -0 -0 -0 -0 -0 -0 -0 -0 -0 -0 -0 -0 -0 -0 -0 -0 -0 -0 -0 -0 -0 -0 -0 -0 -0
-0 -27 -0 -0 -0 -0 -0 -0 -0 -0 -0 -0 -0 -0 -0 -0 -0 -0 -0 -0 -0 -0 -0 -1 -2 -2 -3 -2 -3 -0 -0 -0 -0 -0 -0 -0 -0 -0 -0 -0 -0 -0 -0 -0 -0 -0 -0 -0 -0 -0 -0 -0 -0 -0
-0 -0 -0 -0 -0 -0 -0 -0 -0 -0 -0 -0 -0 -0 -0 -0 -0 -0 -0 -0 -0 -0 -1 -0 -1 -0 -2 -0 -0 -0 -0 -0 -0 -0 -0 -0 -0 -0 -0 -0 -0 -0 -0 -0 -0 -0 -0 -0 -0 -0 -0 -0 -0 -0
-0 -0 -0 -0 -0 -0 -0 -0 -0 -0 -0 -0 -0 -0 -0 -0 -0 -0 -0 -0 -0 -0 -0 -0 -0 -0 -0 -0 -0 -0 -0 -0 -0 -0 -0 -0 -0 -0 -0 -0 -0 -0 -0 -0 -0 -0 -0 -0 -0 -0 -0 -0 -0 -0
-0 -0 -0 -0 -0 -0 -0 -0 -0 -0 -0 -0 -0 -0 -0 -0 -0 -0 -0 -0 -0 -0 -0 -0 -0 -0 -0 -0 -0 -0 -0 -0 -0 -0 -0 -0 -0 -0 -0 -0 -0 -0 -0 -0 -0 -0 -0 -0 -0 -0 -0 -0 -0 -0
-0 -0 -0 -0 -0 -0 -0 -0 -0 -0 -0 -0 -0 -0 -1 -0 -0 -0 -0 -0 -0 -0 -0 -0 -0 -0 -0 -0 -0 -0 -0 -0 -0 -0 -0 -0 -0 -0 -0 -0 -0 -0 -0 -0 -0 -0 -0 -0 -0 -0 -0 -0 -0 -0
-0 -0 -0 -0 -0 -15 -14 -10 -1 -0 -0 -11 -14 -0 -0 -0 -0 -0 -0 -0 -0 -0 -0 -0 -0 -0 -0 -0 -0 -0 -0 -0 -0 -0 -0 -0 -0 -0 -0 -0 -0 -0 -0 -0 -0 -0 -0 -0 -0 -0 -0 -0 -0 -0
-0 -0 -0 -0 -0 -14 -1 -7 -3 -0 -0 -0 -0 -0 -0 -0 -0 -0 -0 -0 -0 -0 -0 -0 -0 -0 -0 -0 -0 -0 -0 -0 -0 -0 -0 -0 -0 -0 -0 -0 -0 -0 -0 -0 -0 -0 -0 -0 -0 -0 -0 -0 -0 -0
-0 -0 -0 -14 -12 -21 -36 -0 -0 -0 -0 -0 -0 -0 -0 -0 -0 -0 -0 -0 -0 -0 -0 -0 -0 -0 -0 -0 -0 -0 -0 -0 -0 -0 -0 -0 -0 -0 -0 -0 -0 -0 -0 -0 -0 -0 -0 -0 -0 -0 -0 -0 -0 -0
-0 -0 -0 -1 -6 -1 -0 -0 -0 -0 -0 -0 -0 -0 -0 -0 -0 -0 -0 -0 -0 -0 -0 -0 -0 -0 -0 -0 -0 -0 -0 -0 -0 -0 -0 -0 -0 -0 -0 -0 -0 -0 -0 -0 -0 -0 -0 -0 -0 -0 -0 -0 -0 -0
-0 -0 -0 -1 -5 -5 -1 -0 -0 -0 -0 -0 -0 -0 -0 -0 -0 -0 -0 -0 -0 -0 -0 -0 -0 -0 -0 -0 -0 -0 -0 -0 -0 -0 -0 -0 -0 -0 -0 -0 -0 -0 -0 -0 -0 -0 -0 -0 -0 -0 -0 -0 -0 -0
Wind_Speed
19 18 15 13 16 13 13 19 23 26 26 26 25 30 31 31 29 26 20 17 21 20 21 19 18 20 21 21 23 22 26 18 19 20 16 20 22 22 22 22 23 21 22 23 19 20 23 22 27 29 22 24 16 24
21 19 17 15 16 17 11 19 23 25 25 25 26 30 30 30 28 24 21 18 20 19 21 21 15 10 12 12 15 15 13 11 10 14 14 19 21 8 16 17 16 24 9 15 15 16 21 31 22 21 23 25 21 24
22 20 19 16 15 22 15 19 22 24 25 25 28 30 29 29 27 22 19 19 21 22 24 22 22 19 15 7 3 9 11 11 10 10 9 10 8 10 9 4 16 8 15 7 14 21 22 20 17 33 33 27 24 25
22 21 20 19 18 20 17 19 22 23 25 26 27 28 29 28 26 23 19 17 18 21 22 21 21 22 17 12 10 12 10 10 10 11 10 8 7 8 4 14 18 11 4 9 17 19 19 16 16 35 34 31 29 27
22 21 21 20 23 23 19 20 22 24 22 24 26 27 28 27 27 23 15 13 10 20 21 18 18 20 17 11 7 12 13 13 11 9 8 5 6 3 4 7 4 8 11 14 21 11 11 25 19 31 32 29 24 22
23 19 23 23 23 25 26 23 24 25 20 23 26 26 27 26 26 22 19 19 15 14 19 19 19 21 21 11 13 12 12 12 12 9 7 8 7 6 7 3 6 9 17 16 12 7 8 13 20 25 27 22 21 20
23 20 22 21 22 25 29 26 28 25 26 22 27 26 24 22 20 17 19 18 16 17 18 19 19 19 22 20 22 17 12 11 12 11 9 7 5 9 6 6 3 7 11 7 0 15 8 5 16 18 19 19 18 18
21 21 21 20 21 23 28 27 27 27 29 26 30 24 19 17 16 16 16 13 9 14 16 19 19 20 24 24 18 21 10 12 12 10 10 8 10 11 12 8 6 9 8 19 20 10 6 10 14 16 16 14 15 15
19 19 21 18 18 21 26 27 29 30 31 34 33 20 17 16 17 17 17 18 16 16 17 20 23 22 23 21 18 15 17 15 11 12 12 15 15 14 9 5 4 6 4 8 14 3 5 6 12 15 13 11 12 12
16 17 19 18 16 17 23 26 28 30 32 29 17 17 17 17 16 17 16 16 16 16 16 20 19 21 21 21 17 18 18 17 15 13 15 15 17 16 10 9 1 3 3 3 6 8 14 13 10 9 8 9 10 11
13 14 14 15 13 16 20 24 25 28 22 19 17 15 18 18 15 16 15 15 16 17 16 18 19 21 19 16 15 16 16 19 17 13 11 16 21 23 21 11 7 2 2 2 2 5 2 4 5 7 8 9 10 11
10 10 12 13 10 11 18 21 21 20 18 17 16 17 17 15 16 16 16 17 17 18 18 21 21 19 18 11 10 15 14 18 16 20 15 17 19 25 24 19 10 3 6 8 2 1 3 3 3 6 7 9 11 11
8 9 12 9 6 10 16 17 17 17 17 15 16 15 15 15 16 16 20 20 20 19 21 22 23 20 16 13 10 14 14 16 23 16 15 20 26 24 23 18 8 4 5 6 5 2 8 6 4 6 6 7 8 9
7 9 7 5 5 11 14 14 14 14 13 13 13 13 13 14 15 17 18 18 18 19 21 23 21 17 15 14 12 10 16 17 14 16 18 23 26 25 22 14 6 7 6 13 2 8 10 7 6 8 7 7 7 7
7 6 6 6 7 12 13 12 12 12 11 13 13 13 13 14 15 15 17 21 21 20 23 22 20 18 17 16 14 12 11 12 14 18 22 24 25 23 19 14 11 8 7 7 12 6 9 9 7 7 5 5 6 7
9 4 8 5 8 9 9 8 12 12 13 12 12 12 13 13 16 16 19 21 22 23 22 21 21 21 21 18 15 14 10 14 18 22 23 23 22 21 16 15 13 8 8 7 10 10 11 12 10 8 7 5 6 8
6 8 3 4 7 5 3 9 10 11 13 12 11 10 12 14 15 16 17 20 20 22 23 20 22 20 17 18 17 14 14 20 22 24 24 23 21 18 19 19 19 14 10 9 8 9 8 10 10 8 8 8 6 9
10 4 4 5 3 4 8 10 11 12 12 11 11 11 11 13 13 16 18 20 19 20 20 19 18 21 19 17 14 13 21 22 22 22 22 21 20 20 20 20 20 16 15 15 14 10 10 10 13 11 8 8 9 10
4 5 6 7 5 7 8 9 10 12 12 10 10 10 12 13 16 17 19 19 19 19 19 19 18 16 15 14 13 21 22 23 23 22 22 21 21 23 22 21 19 17 18 16 16 14 11 12 11 13 14 12 11 11
6 5 4 4 7 10 10 11 10 12 10 10 9 7 10 12 14 18 20 20 18 18 19 19 18 15 12 11 12 23 24 24 24 23 23 24 24 22 21 20 20 20 19 19 18 18 17 17 14 12 12 13 13 11
6 8 4 7 10 13 13 11 9 11 10 10 7 8 11 11 13 16 17 18 18 18 18 17 16 16 15 16 13 22 24 24 24 23 24 24 24 23 22 22 22 21 21 20 19 18 18 17 16 14 14 13 13 13
8 4 8 10 12 11 13 11 11 10 10 10 6 8 9 9 11 14 14 17 17 16 16 16 15 16 16 17 19 21 23 23 23 22 22 23 24 24 24 23 23 22 22 22 21 19 18 18 17 15 16 13 13 14
4 8 8 10 11 8 12 9 10 9 10 7 7 9 10 10 10 12 14 14 14 14 15 16 15 15 16 17 19 22 24 22 23 22 22 22 23 23 23 23 23 23 23 23 22 22 22 21 18 17 16 17 15 13
9 8 10 8 10 9 11 10 9 9 10 9 6 9 9 10 8 12 12 11 10 11 13 14 15 16 17 18 20 23 25 24 22 20 21 21 23 23 23 23 23 23 24 25 24 23 23 23 22 20 20 19 18 14
8 9 10 9 9 10 10 9 8 9 10 8 8 9 9 9 10 11 11 9 7 9 10 11 13 14 16 18 19 23 24 25 24 21 21 22 23 24 23 24 24 24 26 26 26 26 25 24 23 23 21 21 21 20
10 9 8 6 8 9 9 10 7 8 9 9 8 7 9 10 11 12 11 5 5 6 7 8 10 13 15 16 18 22 24 25 23 22 21 22 23 24 25 25 25 26 27 27 27 27 27 26 26 25 25 23 24 24
14 12 11 11 11 11 11 12 9 8 8 9 7 8 9 11 12 11 9 7 6 6 6 7 9 11 13 13 17 19 22 24 23 21 22 22 23 24 25 26 27 28 28 28 28 28 29 29 29 29 28 28 26 26
15 14 12 9 10 10 12 10 10 9 9 8 5 7 8 11 11 9 8 7 8 7 8 10 10 10 9 12 16 19 23 24 23 23 21 24 24 24 26 26 27 28 28 28 29 29 29 30 30 31 31 31 30 28
14 14 10 12 11 12 10 10 9 9 8 6 6 9 10 11 11 9 8 8 9 9 10 12 12 12 12 14 17 20 23 25 26 25 26 26 27 27 28 28 28 28 28 29 29 29 30 29 29 29 29 29 30 30
13 10 11 11 10 9 10 10 10 11 12 8 8 9 10 11 11 10 9 9 9 10 11 11 11 11 11 13 16 19 22 23 24 25 26 27 27 29 29 29 28 29 29 29 29 29 29 27 27 26 26 26 26 27
12 8 12 11 11 9 7 8 11 11 11 10 9 5 6 8 10 12 10 10 10 11 12 12 13 13 14 16 16 18 20 22 23 24 25 25 27 28 29 28 28 28 27 27 28 28 28 27 26 26 26 25 26 26
9 8 8 10 11 7 6 11 12 11 10 8 6 5 5 7 8 10 11 9 10 11 12 12 12 14 15 16 16 17 18 19 23 24 25 26 27 28 28 28 27 26 26 26 25 26 26 26 26 26 25 25 26 26
8 9 8 9 8 8 9 9 10 10 9 7 5 4 5 7 9 10 10 10 10 10 11 12 13 14 16 16 14 17 19 20 23 24 24 25 27 28 28 27 26 26 25 25 24 24 24 24 24 25 25 25 24 23
Wind_Direction
298 304 309 318 329 338 344 346 347 348 352 357 0 352 351 350 354 2 7 18 12 2 348 355 355 355 355 352 351 355 359 18 11 2 5 324 299 309 327 336 334 335 332 329 354 345 344 356 347 347 341 282 267 263
291 297 303 311 322 331 341 341 342 345 350 353 355 349 351 349 351 0 5 11 7 360 345 345 332 323 337 342 357 13 25 31 64 36 344 271 269 32 5 3 7 298 27 351 354 350 343 336 340 326 346 273 263 266
287 290 297 305 317 320 334 337 338 343 347 350 346 347 349 350 351 360 2 5 4 4 4 13 14 13 12 15 145 51 67 101 126 120 145 147 152 58 40 185 242 223 359 357 348 352 346 342 341 323 288 274 268 267
280 286 292 299 309 316 327 332 334 341 344 345 346 346 347 348 350 357 1 8 15 12 15 21 27 28 33 55 97 169 180 132 125 106 128 137 106 89 138 236 252 242 22 4 353 346 348 350 356 303 293 284 274 268
276 282 288 295 300 307 317 323 329 336 346 346 346 345 346 347 349 359 11 23 39 21 16 24 20 38 39 58 186 162 159 151 128 132 132 128 77 111 175 208 190 57 28 10 357 339 298 288 279 303 298 282 273 263
273 277 284 291 298 299 303 314 320 330 346 347 345 345 346 347 354 7 15 26 35 40 27 28 34 36 31 50 263 101 119 147 165 145 133 107 119 122 176 162 62 33 12 3 358 291 358 274 277 288 292 273 264 258
271 275 281 286 293 294 294 304 310 326 332 347 339 341 347 349 3 15 16 23 44 37 32 27 28 32 30 38 356 41 86 138 170 183 176 174 135 90 123 57 129 273 1 315 120 284 308 11 282 280 278 266 258 256
266 272 279 284 289 292 290 301 310 320 326 337 332 341 349 354 6 17 23 27 45 35 38 29 25 27 31 31 43 335 48 164 153 144 144 132 92 104 84 85 38 31 27 27 291 284 346 283 274 283 276 265 263 261
258 267 275 281 286 292 289 296 301 309 320 314 315 349 4 5 9 16 27 36 45 41 34 31 23 22 23 29 37 355 263 250 124 119 111 90 94 100 82 34 49 62 7 292 288 325 358 290 291 293 280 262 264 262
254 260 272 278 281 291 289 292 299 307 308 322 354 354 355 4 16 25 29 31 32 35 39 27 27 18 19 20 30 14 280 274 265 157 95 95 91 310 305 317 109 90 334 314 305 316 314 308 304 288 252 261 268 266
246 258 264 273 276 287 289 293 301 309 332 344 351 355 347 353 15 20 26 30 27 24 29 22 16 7 14 9 13 342 312 273 290 219 186 56 10 305 299 304 309 131 287 328 280 298 322 271 295 302 275 271 273 270
237 240 262 271 273 288 289 295 308 324 338 346 346 347 350 6 10 14 24 26 24 21 16 8 6 3 4 23 29 332 334 276 294 283 255 335 294 307 295 293 274 220 268 294 123 13 299 250 287 297 272 276 275 271
217 237 259 256 263 286 288 298 312 330 337 344 346 351 359 7 6 12 9 14 12 13 10 4 360 6 27 45 41 327 315 291 282 293 304 322 307 311 306 289 241 185 244 278 110 331 314 311 262 310 289 284 280 280
200 182 196 217 259 280 287 301 319 335 342 351 0 358 4 3 7 12 18 18 17 13 8 7 14 30 36 49 51 30 298 289 300 297 296 296 307 305 298 286 172 245 226 297 236 309 321 329 322 330 314 304 303 308
183 200 211 244 261 275 288 305 328 330 349 347 353 354 3 6 18 27 24 17 19 21 16 22 36 43 46 55 59 26 333 307 294 293 280 292 300 304 304 291 268 240 186 260 309 299 322 328 331 327 320 310 306 315
155 182 261 245 262 276 291 329 324 330 328 342 347 351 0 11 13 20 18 18 21 21 30 37 41 43 44 52 57 47 347 293 285 295 294 292 295 299 290 300 290 239 189 194 287 298 314 328 332 329 324 306 317 314
148 275 212 214 261 274 345 327 333 334 325 336 344 353 2 12 21 25 26 20 25 29 30 42 39 43 56 55 63 36 296 281 286 296 295 295 294 297 300 298 304 286 262 252 228 252 260 298 313 318 326 330 332 336
268 250 205 184 200 301 315 324 326 326 323 336 342 0 19 32 35 29 23 23 33 35 37 41 49 45 49 52 62 344 284 285 287 288 291 292 299 303 307 305 303 291 289 299 288 176 176 242 306 310 303 309 328 336
221 194 164 148 259 313 336 324 328 322 326 337 349 13 24 33 30 27 24 27 34 41 44 41 40 42 49 61 51 285 288 291 289 284 289 292 302 314 315 317 323 318 311 309 313 295 232 218 243 294 315 311 317 323
162 169 186 212 282 321 330 331 325 323 326 334 354 28 30 30 34 24 20 26 35 34 33 35 41 51 56 51 39 301 291 292 289 288 290 303 306 302 305 314 318 324 319 317 312 320 320 326 310 274 284 308 312 310
217 235 248 266 286 307 319 330 334 334 337 341 17 25 16 32 27 20 22 31 29 30 35 42 48 52 49 48 38 311 294 301 300 299 297 294 300 301 303 311 319 325 323 313 306 305 309 306 298 251 286 305 315 330
239 225 267 277 297 314 316 322 330 338 345 349 25 14 14 20 21 19 28 22 27 37 42 45 50 47 43 34 23 359 305 300 303 306 306 307 307 309 311 311 310 315 318 313 299 292 287 290 292 272 227 266 329 341
222 267 285 298 313 329 328 325 326 335 341 347 357 359 5 12 20 27 13 22 32 47 50 47 49 47 42 33 20 2 333 309 306 299 301 308 313 314 312 310 309 302 303 302 303 301 291 295 287 290 277 269 282 311
268 289 301 316 326 331 329 325 330 332 335 339 342 344 1 7 26 7 7 20 37 55 51 49 47 44 39 31 18 359 348 334 315 315 314 307 313 315 314 310 306 303 302 295 297 301 299 293 286 284 280 278 278 309
301 306 318 325 329 326 321 326 326 326 327 337 343 348 1 9 358 355 357 19 54 51 53 50 44 40 30 26 20 1 350 351 343 314 314 319 316 314 317 317 318 315 313 304 301 299 297 291 293 280 278 277 275 273
304 315 328 327 324 319 322 320 320 320 332 334 344 358 356 354 348 346 354 29 50 59 60 57 43 26 22 21 14 1 347 344 353 344 322 319 322 319 315 313 314 316 318 313 303 297 295 294 293 292 280 281 276 270
301 316 316 320 319 320 323 326 333 330 324 330 337 347 348 343 341 349 7 26 35 46 70 50 34 19 12 17 7 0 352 343 343 349 341 330 324 324 318 312 309 311 311 309 307 301 292 287 285 283 284 284 280 271
309 312 308 312 315 317 323 325 326 327 331 348 355 335 342 342 348 9 17 31 55 53 27 6 8 11 29 15 5 356 346 340 335 335 334 329 328 326 322 316 310 313 314 311 309 307 301 294 286 280 275 273 276 281
308 311 312 312 311 318 315 325 330 339 346 350 334 336 344 353 5 18 39 54 36 31 28 22 23 35 26 14 3 356 351 345 337 329 321 314 316 320 319 320 322 319 316 314 315 315 310 304 298 289 285 282 282 283
309 314 315 314 310 312 325 333 334 338 341 350 358 6 8 12 9 25 40 36 32 30 25 29 30 23 14 8 360 353 351 350 348 341 330 322 317 315 317 318 318 320 321 321 319 317 320 317 312 306 297 292 289 286
316 312 313 316 314 315 334 358 351 344 337 340 354 12 21 28 12 360 14 32 44 42 40 30 19 13 6 1 357 351 346 347 347 344 342 339 332 327 324 321 319 319 321 324 326 328 327 322 317 312 306 301 296 291
315 313 310 319 328 345 357 335 334 333 340 341 347 359 23 8 0 354 345 25 34 33 33 41 32 19 17 13 9 7 6 358 349 347 346 341 335 332 330 328 326 326 326 325 326 329 332 333 332 328 320 312 305 299
326 321 317 321 327 326 332 336 337 340 342 338 344 351 346 346 344 342 0 17 36 43 41 41 39 30 16 10 16 3 358 355 352 350 351 349 343 337 334 332 331 330 328 328 329 329 331 334 336 336 337 335 329 319